DAL042 OMDB-OEDF

Flight info

Callsign DAL042
Flight time 0h 59m
Altitude 26000
Route NABIX P699 ORMID M556 NARMI
Aircraft B738/M-SDE2E3FGHIRWXY/LB1

Departure

Time 2026-04-23 18:26
Airport Dubai International Airport (OMDB)

Arrival

Time 2026-04-23 19:25
Airport King Fahd International Airport (OEDF)
Time Latitude Longitude Altitude Speed Heading
2026-04-23 17:58 25.24084 55.37486 22 ft 0 kts 355°
2026-04-23 18:14 25.24081 55.37486 23 ft 2 kts 355°
2026-04-23 18:14 25.24065 55.37488 22 ft 2 kts 355°
2026-04-23 18:15 25.24049 55.37489 23 ft 2 kts 355°
2026-04-23 18:15 25.24033 55.37491 22 ft 2 kts
2026-04-23 18:15 25.24017 55.37485 24 ft 2 kts 69°
2026-04-23 18:15 25.24015 55.37477 24 ft 0 kts 85°
2026-04-23 18:19 25.24016 55.37486 24 ft 5 kts 84°
2026-04-23 18:19 25.24036 55.37546 23 ft 12 kts 68°
2026-04-23 18:19 25.24082 55.37645 21 ft 17 kts 45°
2026-04-23 18:20 25.24186 55.37718 21 ft 18 kts 30°
2026-04-23 18:20 25.24255 55.37764 21 ft 17 kts 32°
2026-04-23 18:20 25.24351 55.37831 23 ft 10 kts 33°
2026-04-23 18:20 25.24360 55.37837 22 ft 0 kts 34°
2026-04-23 18:22 25.24360 55.37838 22 ft 0 kts 34°
2026-04-23 18:22 25.24380 55.37852 21 ft 8 kts 34°
2026-04-23 18:22 25.24446 55.37903 21 ft 15 kts 34°
2026-04-23 18:22 25.24553 55.37984 21 ft 22 kts 34°
2026-04-23 18:23 25.24642 55.38048 21 ft 0 kts 33°
2026-04-23 18:23 25.24643 55.38049 21 ft 1 kts 33°
2026-04-23 18:24 25.24650 55.38054 21 ft 0 kts 32°
2026-04-23 18:24 25.24651 55.38055 21 ft 1 kts 32°
2026-04-23 18:25 25.24767 55.38083 21 ft 13 kts 326°
2026-04-23 18:25 25.24864 55.37922 22 ft 58 kts 301°
2026-04-23 18:25 25.25217 55.37282 21 ft 132 kts 302°
2026-04-23 18:25 25.25808 55.36250 112 ft 185 kts 303°
2026-04-23 18:26 25.26554 55.34978 711 ft 201 kts 305°
2026-04-23 18:26 25.27355 55.33643 1359 ft 216 kts 307°
2026-04-23 18:26 25.28202 55.32257 2099 ft 217 kts 308°
2026-04-23 18:26 25.29105 55.30876 2595 ft 226 kts 309°
2026-04-23 18:27 25.30021 55.29468 3191 ft 230 kts 308°
2026-04-23 18:27 25.30947 55.27985 3771 ft 234 kts 306°
2026-04-23 18:27 25.31644 55.26315 3612 ft 246 kts 278°
2026-04-23 18:27 25.31506 55.24343 3326 ft 279 kts 252°
2026-04-23 18:28 25.30515 55.22375 3656 ft 296 kts 239°
2026-04-23 18:28 25.29753 55.20218 4108 ft 310 kts 262°
2026-04-23 18:28 25.29515 55.17841 4899 ft 309 kts 265°
2026-04-23 18:28 25.29325 55.15568 6074 ft 292 kts 265°
2026-04-23 18:29 25.29117 55.13373 7159 ft 280 kts 263°
2026-04-23 18:29 25.28893 55.11263 8087 ft 276 kts 262°
2026-04-23 18:29 25.28650 55.09152 8793 ft 278 kts 261°
2026-04-23 18:29 25.28390 55.07018 9514 ft 281 kts 261°
2026-04-23 18:30 25.28118 55.04866 10211 ft 283 kts 260°
2026-04-23 18:30 25.27839 55.02704 10904 ft 285 kts 260°
2026-04-23 18:30 25.27555 55.00533 11615 ft 286 kts 259°
2026-04-23 18:30 25.27266 54.98348 12292 ft 289 kts 259°
2026-04-23 18:31 25.26971 54.96138 12970 ft 291 kts 259°
2026-04-23 18:31 25.26674 54.93928 13514 ft 300 kts 259°
2026-04-23 18:31 25.26355 54.91570 13664 ft 320 kts 259°
2026-04-23 18:31 25.26015 54.89061 13802 ft 339 kts 259°
2026-04-23 18:32 25.25656 54.86415 13928 ft 357 kts 259°
2026-04-23 18:32 25.25281 54.83641 14036 ft 373 kts 260°
2026-04-23 18:32 25.24889 54.80751 14132 ft 387 kts 260°
2026-04-23 18:32 25.24484 54.77761 14286 ft 398 kts 260°
2026-04-23 18:33 25.24075 54.74742 14650 ft 402 kts 260°
2026-04-23 18:33 25.23661 54.71697 14902 ft 399 kts 260°
2026-04-23 18:33 25.23300 54.68661 15188 ft 400 kts 265°
2026-04-23 18:33 25.23383 54.65573 15469 ft 404 kts 275°
2026-04-23 18:34 25.23941 54.62542 16102 ft 400 kts 281°
2026-04-23 18:34 25.24558 54.59562 16826 ft 395 kts 281°
2026-04-23 18:34 25.25152 54.56621 17540 ft 390 kts 281°
2026-04-23 18:34 25.25730 54.53712 18240 ft 385 kts 281°
2026-04-23 18:35 25.26296 54.50835 18850 ft 382 kts 281°
2026-04-23 18:35 25.26854 54.47976 19440 ft 379 kts 281°
2026-04-23 18:35 25.27408 54.45128 20018 ft 378 kts 281°
2026-04-23 18:35 25.27958 54.42292 20587 ft 377 kts 281°
2026-04-23 18:36 25.28499 54.39505 21152 ft 376 kts 281°
2026-04-23 18:36 25.29047 54.36675 21715 ft 375 kts 281°
2026-04-23 18:36 25.29593 54.33855 22276 ft 375 kts 281°
2026-04-23 18:36 25.30137 54.31038 22827 ft 374 kts 281°
2026-04-23 18:37 25.30680 54.28229 23360 ft 374 kts 281°
2026-04-23 18:37 25.31223 54.25415 23810 ft 374 kts 281°
2026-04-23 18:37 25.31764 54.22604 24250 ft 374 kts 281°
2026-04-23 18:37 25.32305 54.19795 24690 ft 374 kts 281°
2026-04-23 18:38 25.32845 54.16988 25132 ft 373 kts 281°
2026-04-23 18:38 25.33386 54.14176 25561 ft 373 kts 281°
2026-04-23 18:38 25.33926 54.11359 25847 ft 378 kts 281°
2026-04-23 18:38 25.34478 54.08479 25846 ft 387 kts 281°
2026-04-23 18:39 25.35041 54.05536 25857 ft 395 kts 281°
2026-04-23 18:39 25.35616 54.02529 25868 ft 403 kts 281°
2026-04-23 18:39 25.36200 53.99473 25862 ft 410 kts 281°
2026-04-23 18:39 25.36787 53.96397 25858 ft 417 kts 281°
2026-04-23 18:40 25.37391 53.93230 25857 ft 423 kts 281°
2026-04-23 18:40 25.38001 53.90023 25863 ft 429 kts 281°
2026-04-23 18:40 25.38621 53.86767 25861 ft 434 kts 281°
2026-04-23 18:40 25.39244 53.83485 25863 ft 438 kts 281°
2026-04-23 18:41 25.39873 53.80169 25862 ft 442 kts 281°
2026-04-23 18:41 25.40507 53.76824 25858 ft 446 kts 281°
2026-04-23 18:41 25.41145 53.73451 25858 ft 449 kts 281°
2026-04-23 18:41 25.41785 53.70061 25852 ft 451 kts 281°
2026-04-23 18:42 25.42420 53.66696 25858 ft 454 kts 281°
2026-04-23 18:42 25.43074 53.63228 25856 ft 456 kts 281°
2026-04-23 18:42 25.43713 53.59831 25857 ft 458 kts 281°
2026-04-23 18:42 25.44361 53.56384 25859 ft 459 kts 281°
2026-04-23 18:43 25.45012 53.52918 25855 ft 460 kts 281°
2026-04-23 18:43 25.45662 53.49445 25857 ft 460 kts 281°
2026-04-23 18:43 25.46312 53.45974 25859 ft 461 kts 281°
2026-04-23 18:43 25.46963 53.42492 25863 ft 461 kts 281°
2026-04-23 18:44 25.47613 53.39012 25858 ft 461 kts 281°
2026-04-23 18:44 25.48262 53.35528 25860 ft 462 kts 281°
2026-04-23 18:44 25.48909 53.32050 25857 ft 462 kts 281°
2026-04-23 18:44 25.49557 53.28567 25858 ft 462 kts 281°
2026-04-23 18:45 25.50196 53.25124 25863 ft 462 kts 281°
2026-04-23 18:45 25.50842 53.21639 25862 ft 462 kts 281°
2026-04-23 18:45 25.51487 53.18154 25864 ft 462 kts 281°
2026-04-23 18:45 25.52131 53.14671 25867 ft 462 kts 281°
2026-04-23 18:46 25.52775 53.11180 25866 ft 462 kts 281°
2026-04-23 18:46 25.53416 53.07704 25870 ft 462 kts 281°
2026-04-23 18:46 25.54058 53.04215 25871 ft 461 kts 281°
2026-04-23 18:46 25.54698 53.00733 25868 ft 461 kts 281°
2026-04-23 18:47 25.55337 52.97255 25872 ft 461 kts 281°
2026-04-23 18:47 25.55984 52.93773 25870 ft 461 kts 282°
2026-04-23 18:47 25.56892 52.90362 25872 ft 462 kts 289°
2026-04-23 18:47 25.58223 52.87116 25874 ft 463 kts 297°
2026-04-23 18:48 25.59782 52.83992 25876 ft 463 kts 297°
2026-04-23 18:48 25.61347 52.80869 25874 ft 463 kts 297°
2026-04-23 18:48 25.62901 52.77743 25874 ft 463 kts 297°
2026-04-23 18:48 25.64424 52.74648 25874 ft 462 kts 296°
2026-04-23 18:49 25.65956 52.71513 25875 ft 462 kts 296°
2026-04-23 18:49 25.67479 52.68380 25877 ft 462 kts 296°
2026-04-23 18:49 25.69004 52.65236 25878 ft 462 kts 296°
2026-04-23 18:49 25.70529 52.62092 25880 ft 462 kts 296°
2026-04-23 18:50 25.71538 52.60010 25880 ft 462 kts 296°
2026-04-23 18:50 25.73573 52.55812 25880 ft 462 kts 296°
2026-04-23 18:50 25.75096 52.52670 25882 ft 462 kts 296°
2026-04-23 18:50 25.76613 52.49527 25879 ft 462 kts 296°
2026-04-23 18:51 25.78105 52.46371 25881 ft 462 kts 295°
2026-04-23 18:51 25.79564 52.43243 25883 ft 461 kts 295°
2026-04-23 18:51 25.81037 52.40079 25881 ft 461 kts 295°
2026-04-23 18:51 25.82511 52.36918 25888 ft 461 kts 295°
2026-04-23 18:52 25.83989 52.33756 25885 ft 461 kts 295°
2026-04-23 18:52 25.85473 52.30584 25887 ft 462 kts 295°
2026-04-23 18:52 25.87061 52.27483 25881 ft 463 kts 301°
2026-04-23 18:52 25.89012 52.24615 25884 ft 466 kts 309°
2026-04-23 18:53 25.91228 52.21981 25894 ft 467 kts 310°
2026-04-23 18:53 25.93442 52.19380 25874 ft 455 kts 310°
2026-04-23 18:53 25.95562 52.16872 25868 ft 435 kts 310°
2026-04-23 18:53 25.97573 52.14464 25874 ft 417 kts 309°
2026-04-23 18:54 25.99499 52.12138 25876 ft 400 kts 309°
2026-04-23 18:54 26.01321 52.09929 25728 ft 388 kts 309°
2026-04-23 18:54 26.03150 52.07709 25427 ft 381 kts 309°
2026-04-23 18:54 26.04934 52.05545 25045 ft 377 kts 309°
2026-04-23 18:55 26.06699 52.03404 24667 ft 374 kts 309°
2026-04-23 18:55 26.08427 52.01308 24269 ft 372 kts 309°
2026-04-23 18:55 26.10080 51.99126 24082 ft 360 kts 302°
2026-04-23 18:55 26.11313 51.96777 24080 ft 347 kts 294°
2026-04-23 18:56 26.12018 51.95185 24094 ft 346 kts 294°
2026-04-23 18:56 26.13430 51.91943 24107 ft 351 kts 293°
2026-04-23 18:56 26.14496 51.89492 24106 ft 352 kts 294°
2026-04-23 18:56 26.15566 51.87040 24106 ft 351 kts 294°
2026-04-23 18:57 26.16634 51.84603 24105 ft 350 kts 294°
2026-04-23 18:57 26.17708 51.82160 24105 ft 350 kts 294°
2026-04-23 18:57 26.18777 51.79732 24108 ft 349 kts 294°
2026-04-23 18:57 26.19845 51.77305 24109 ft 349 kts 294°
2026-04-23 18:58 26.20911 51.74886 24110 ft 348 kts 294°
2026-04-23 18:58 26.21976 51.72467 24110 ft 348 kts 294°
2026-04-23 18:58 26.23042 51.70047 24113 ft 348 kts 293°
2026-04-23 18:58 26.24107 51.67627 24110 ft 348 kts 293°
2026-04-23 18:59 26.25170 51.65210 24112 ft 348 kts 293°
2026-04-23 18:59 26.26234 51.62789 24119 ft 348 kts 293°
2026-04-23 18:59 26.27297 51.60370 24118 ft 348 kts 293°
2026-04-23 18:59 26.28361 51.57946 24118 ft 348 kts 293°
2026-04-23 19:00 26.29412 51.55551 24118 ft 348 kts 293°
2026-04-23 19:00 26.30472 51.53134 24115 ft 348 kts 293°
2026-04-23 19:00 26.31535 51.50710 24119 ft 348 kts 293°
2026-04-23 19:00 26.32597 51.48284 24120 ft 348 kts 293°
2026-04-23 19:01 26.33661 51.45856 24120 ft 348 kts 293°
2026-04-23 19:01 26.34720 51.43435 24127 ft 348 kts 293°
2026-04-23 19:01 26.35781 51.41010 24123 ft 347 kts 293°
2026-04-23 19:01 26.36844 51.38576 23901 ft 350 kts 293°
2026-04-23 19:02 26.37550 51.36961 23760 ft 348 kts 293°
2026-04-23 19:02 26.38960 51.33734 23453 ft 344 kts 293°
2026-04-23 19:02 26.40004 51.31343 23191 ft 342 kts 293°
2026-04-23 19:02 26.41044 51.28957 22929 ft 341 kts 293°
2026-04-23 19:03 26.42082 51.26576 22670 ft 341 kts 293°
2026-04-23 19:03 26.43102 51.24234 22419 ft 340 kts 293°
2026-04-23 19:03 26.44134 51.21863 22160 ft 339 kts 293°
2026-04-23 19:03 26.45163 51.19499 21906 ft 338 kts 293°
2026-04-23 19:04 26.46189 51.17139 21659 ft 338 kts 293°
2026-04-23 19:04 26.47211 51.14786 21410 ft 337 kts 292°
2026-04-23 19:04 26.48234 51.12432 21164 ft 336 kts 292°
2026-04-23 19:04 26.49253 51.10085 20913 ft 335 kts 292°
2026-04-23 19:05 26.50265 51.07753 20668 ft 334 kts 292°
2026-04-23 19:05 26.51280 51.05412 20431 ft 333 kts 292°
2026-04-23 19:05 26.52287 51.03088 20198 ft 332 kts 292°
2026-04-23 19:05 26.53290 51.00774 19956 ft 330 kts 292°
2026-04-23 19:06 26.53963 50.99220 19798 ft 329 kts 292°
2026-04-23 19:06 26.54951 50.96919 19561 ft 327 kts 289°
2026-04-23 19:06 26.55461 50.94517 19315 ft 321 kts 270°
2026-04-23 19:06 26.55217 50.92067 19080 ft 318 kts 254°
2026-04-23 19:07 26.54355 50.89796 18872 ft 318 kts 240°
2026-04-23 19:07 26.52960 50.87883 18631 ft 321 kts 225°
2026-04-23 19:07 26.51216 50.86319 18422 ft 322 kts 220°
2026-04-23 19:07 26.49412 50.84846 18200 ft 322 kts 219°
2026-04-23 19:08 26.47586 50.83381 17943 ft 321 kts 219°
2026-04-23 19:08 26.45799 50.81942 17698 ft 321 kts 219°
2026-04-23 19:08 26.43998 50.80479 17449 ft 320 kts 219°
2026-04-23 19:08 26.42204 50.79013 17208 ft 319 kts 220°
2026-04-23 19:09 26.40414 50.77542 16949 ft 318 kts 219°
2026-04-23 19:09 26.38641 50.76082 16705 ft 317 kts 219°
2026-04-23 19:09 26.36867 50.74619 16462 ft 316 kts 219°
2026-04-23 19:09 26.35103 50.73165 16222 ft 315 kts 219°
2026-04-23 19:10 26.33346 50.71716 15981 ft 313 kts 219°
2026-04-23 19:10 26.31615 50.70290 15740 ft 312 kts 219°
2026-04-23 19:10 26.29874 50.68856 15501 ft 310 kts 219°
2026-04-23 19:10 26.28168 50.67394 15252 ft 308 kts 226°
2026-04-23 19:11 26.26948 50.65478 15010 ft 303 kts 246°
2026-04-23 19:11 26.26334 50.63237 14780 ft 303 kts 260°
2026-04-23 19:11 26.26345 50.60893 14552 ft 304 kts 274°
2026-04-23 19:11 26.26631 50.58558 14318 ft 304 kts 275°
2026-04-23 19:12 26.26961 50.56229 14091 ft 304 kts 276°
2026-04-23 19:12 26.27293 50.53907 13867 ft 303 kts 275°
2026-04-23 19:12 26.27617 50.51587 13615 ft 303 kts 275°
2026-04-23 19:12 26.27933 50.49268 13358 ft 302 kts 275°
2026-04-23 19:13 26.28241 50.46972 13103 ft 302 kts 275°
2026-04-23 19:13 26.28548 50.44654 12844 ft 302 kts 275°
2026-04-23 19:13 26.28853 50.42341 12591 ft 302 kts 275°
2026-04-23 19:13 26.29156 50.40030 12338 ft 301 kts 275°
2026-04-23 19:14 26.29459 50.37718 12079 ft 301 kts 275°
2026-04-23 19:14 26.29759 50.35420 11971 ft 299 kts 275°
2026-04-23 19:14 26.30055 50.33118 11938 ft 299 kts 274°
2026-04-23 19:14 26.30146 50.30824 11466 ft 305 kts 266°
2026-04-23 19:15 26.30030 50.28457 11001 ft 307 kts 264°
2026-04-23 19:15 26.29872 50.26078 10489 ft 306 kts 264°
2026-04-23 19:15 26.29719 50.23722 9980 ft 303 kts 265°
2026-04-23 19:15 26.29581 50.21382 9237 ft 304 kts 265°
2026-04-23 19:16 26.29449 50.18967 8339 ft 314 kts 266°
2026-04-23 19:16 26.29324 50.16534 7610 ft 315 kts 266°
2026-04-23 19:16 26.29202 50.14089 6904 ft 316 kts 266°
2026-04-23 19:17 26.28965 50.09243 6013 ft 300 kts 266°
2026-04-23 19:17 26.28855 50.06988 5928 ft 282 kts 266°
2026-04-23 19:17 26.28748 50.04883 5888 ft 264 kts 266°
2026-04-23 19:17 26.28606 50.02867 5583 ft 258 kts 265°
2026-04-23 19:18 26.28452 50.00903 5329 ft 251 kts 264°
2026-04-23 19:18 26.28300 49.98991 5069 ft 245 kts 264°
2026-04-23 19:18 26.28153 49.97122 4819 ft 239 kts 264°
2026-04-23 19:18 26.28011 49.95290 4415 ft 240 kts 265°
2026-04-23 19:19 26.27719 49.91507 3481 ft 248 kts 266°
2026-04-23 19:19 26.27576 49.89656 3420 ft 231 kts 266°
2026-04-23 19:20 26.27451 49.86426 3317 ft 187 kts 291°
2026-04-23 19:20 26.28224 49.85430 3230 ft 166 kts 332°
2026-04-23 19:20 26.29251 49.84783 3230 ft 180 kts 328°
2026-04-23 19:20 26.30350 49.84170 3063 ft 171 kts 337°
2026-04-23 19:21 26.31420 49.83667 2867 ft 163 kts 338°
2026-04-23 19:21 26.33514 49.82907 2480 ft 154 kts 344°
2026-04-23 19:21 26.34540 49.82582 2281 ft 152 kts 345°
2026-04-23 19:22 26.35555 49.82265 2079 ft 151 kts 346°
2026-04-23 19:22 26.36563 49.81951 1891 ft 150 kts 347°
2026-04-23 19:22 26.38569 49.81328 1496 ft 148 kts 347°
2026-04-23 19:23 26.39568 49.81018 1304 ft 150 kts 347°
2026-04-23 19:23 26.40575 49.80706 1112 ft 150 kts 347°
2026-04-23 19:23 26.41580 49.80402 854 ft 152 kts 346°
2026-04-23 19:24 26.43664 49.79773 468 ft 157 kts 341°
2026-04-23 19:24 26.44692 49.79445 259 ft 152 kts 341°
2026-04-23 19:24 26.46488 49.78868 60 ft 96 kts 345°
2026-04-23 19:25 26.47223 49.78743 63 ft 39 kts 12°
2026-04-23 19:25 26.47483 49.78954 63 ft 21 kts 74°
2026-04-23 19:26 26.47352 49.79155 59 ft 20 kts 165°
2026-04-23 19:26 26.47229 49.79214 63 ft 19 kts 152°
2026-04-23 19:27 26.47078 49.79362 66 ft 14 kts 72°
2026-04-23 19:27 26.47090 49.79390 63 ft 0 kts 62°